RH
53 53 49 50 52 48 47 50 68 51 68 61 57 57 48 49 53 58 67 68 69 63 59 55 53 50 47 49 56 58 51 49 44 37 36 35 37 51
59 57 61 61 62 76 85 86 75 75 67 70 69 56 51 53 53 55 62 62 62 57 54 51 53 53 55 52 45 40 40 39 38 35 32 32 42 43
65 62 64 65 65 69 73 75 75 71 79 79 73 79 83 82 79 69 64 58 54 51 44 38 36 35 35 33 30 29 30 30 30 33 27 30 42 45
86 90 83 86 89 81 84 77 71 81 81 74 68 61 58 54 62 59 52 54 53 48 41 40 40 38 32 31 28 28 28 31 34 36 33 27 27 31
100 100 91 88 100 97 90 83 75 73 75 73 70 63 58 59 64 61 60 55 48 46 48 45 44 39 36 30 30 30 34 31 23 25 30 38 42 46
100 98 89 88 90 83 84 92 94 92 84 80 72 72 64 64 59 62 61 49 45 42 43 44 45 41 37 35 27 32 39 47 44 35 41 45 36 34
100 100 99 99 98 100 100 100 100 100 100 79 80 81 74 72 59 76 62 38 39 40 43 45 35 36 30 28 33 35 43 38 35 33 36 30 29 25
98 95 100 100 100 99 100 91 97 89 94 89 90 80 86 81 72 70 57 46 47 46 43 40 34 31 30 30 35 36 42 36 36 35 37 28 24 22
100 100 100 100 100 100 100 97 100 100 94 75 93 95 92 76 77 63 56 47 52 49 44 40 34 34 38 46 49 41 33 33 34 30 26 21 20 20
93 100 100 98 93 100 100 100 99 88 96 98 89 82 74 76 56 49 50 51 50 46 42 43 54 62 52 44 41 34 36 33 30 28 28 24 27 26
71 74 84 98 100 99 92 86 97 100 95 88 86 80 78 79 59 50 52 54 44 38 50 66 76 71 58 49 45 48 47 39 36 32 30 28 27 23
99 92 87 97 96 100 95 100 100 98 84 88 71 76 75 61 54 60 49 40 41 51 66 63 67 71 65 51 55 53 45 38 36 33 28 25 20 12
93 95 98 100 100 96 96 100 99 94 88 76 63 54 53 54 57 51 43 43 54 70 79 76 67 62 54 54 49 40 38 34 35 34 22 14 10 7
99 95 90 87 72 77 81 86 85 91 78 66 53 51 54 56 50 46 55 68 72 66 67 62 54 49 54 52 41 37 32 30 27 20 12 8 6 4
92 94 86 70 75 98 75 82 84 64 53 56 57 60 56 51 52 67 81 74 66 69 57 51 51 53 37 35 32 28 28 28 20 11 8 5 3 4
94 93 81 80 70 80 69 60 58 55 65 72 64 56 55 67 74 84 73 74 76 58 49 50 47 39 35 31 27 23 18 13 11 7 5 3 3 4
100 96 81 68 55 54 57 67 68 74 75 64 57 65 78 85 83 81 87 86 60 51 53 49 41 37 32 26 22 18 13 10 7 5 4 4 4 4
70 56 44 45 50 54 62 77 75 69 68 74 88 90 95 88 83 92 82 59 59 66 66 52 46 43 40 36 18 14 10 8 6 6 6 6 5 4
36 39 45 58 81 88 76 65 67 80 86 85 97 91 83 81 87 73 62 68 75 66 54 47 42 38 39 36 26 10 8 7 7 8 7 5 5 5
57 69 78 76 69 69 85 90 89 93 97 96 91 82 82 82 71 70 82 78 61 55 48 45 41 35 28 20 17 12 6 6 7 8 7 6 6 5
73 72 72 78 89 91 91 91 96 97 91 84 89 88 83 79 85 87 79 68 64 58 51 46 38 27 22 16 11 10 7 6 5 6 7 8 8 6
87 90 91 87 82 84 84 85 84 90 99 89 90 92 86 93 94 77 68 66 59 54 50 41 30 23 16 11 8 8 8 8 5 5 5 6 8 9
86 81 83 88 96 91 88 91 97 96 85 85 89 95 94 87 81 73 66 61 57 53 43 33 26 18 12 9 7 8 8 7 7 6 5 5 5 6
Wind_Speed
52 54 56 56 56 56 57 57 58 59 58 59 61 62 64 67 68 70 71 72 73 75 76 77 79 79 80 82 85 86 89 91 93 93 94 94 95 99
50 52 52 54 55 54 56 58 60 63 66 67 68 70 71 72 73 73 74 76 78 80 81 82 84 84 85 87 89 90 91 92 92 93 94 95 96 97
56 55 56 56 58 59 62 64 66 66 68 68 69 70 72 74 77 81 83 82 83 84 85 85 85 85 86 88 89 91 93 93 94 94 94 92 93 94
59 60 60 61 63 64 65 67 68 71 74 77 77 79 79 80 83 85 85 87 88 89 88 89 89 91 91 93 93 93 94 94 94 95 93 91 89 90
64 65 66 66 66 68 69 72 75 76 78 81 83 81 81 82 84 87 89 90 91 91 92 93 94 94 94 94 95 95 93 93 93 93 93 94 93 94
67 68 69 69 70 72 73 75 77 79 82 84 85 87 87 89 89 89 92 93 93 93 93 95 95 96 96 97 94 92 92 94 95 95 95 95 97 99
71 72 72 73 74 76 77 79 81 83 87 89 91 90 95 93 92 97 97 96 95 95 93 94 94 96 95 93 92 92 92 93 95 95 97 98 101 104
75 75 75 77 79 80 83 85 88 90 92 92 93 98 96 98 101 100 98 101 98 95 94 94 95 95 95 94 95 95 95 97 99 100 101 102 103 106
77 78 78 80 82 83 85 87 90 93 97 99 98 97 100 104 102 101 103 99 94 95 96 95 96 96 96 97 98 98 99 99 101 102 103 105 107 109
80 80 81 84 85 86 89 92 95 100 102 100 101 104 104 102 104 103 100 94 94 93 93 92 95 98 100 99 101 101 100 102 105 107 108 109 110 110
89 88 88 90 91 94 94 96 98 103 104 105 105 106 106 106 107 99 95 94 92 91 90 90 93 94 98 100 100 102 103 105 109 111 110 108 108 108
89 90 92 93 94 95 98 98 104 109 108 107 107 105 107 107 97 94 94 92 91 89 91 94 92 92 91 98 98 100 103 105 108 109 106 101 103 105
94 94 93 94 97 102 104 105 108 112 110 107 103 103 101 94 93 93 92 89 87 89 93 92 91 94 95 91 97 100 102 102 101 100 102 100 101 101
94 98 98 99 99 102 104 106 109 114 111 105 99 95 91 91 91 89 87 87 88 88 86 89 93 92 92 92 93 94 97 95 96 98 102 100 98 94
100 100 99 100 102 107 106 104 110 110 99 92 89 88 88 88 85 85 87 89 88 86 88 90 90 93 93 91 89 87 86 94 95 96 101 98 83 77
102 100 99 106 105 106 104 99 97 89 85 85 86 85 83 82 84 86 88 89 90 90 89 89 91 93 95 94 84 86 89 91 93 95 95 89 78 71
104 105 106 106 99 92 87 84 82 78 80 82 81 78 79 83 85 86 89 89 90 91 92 92 93 95 96 89 87 89 91 94 96 92 85 83 79 71
103 101 93 85 81 77 74 73 75 76 75 74 75 79 82 84 85 87 87 88 91 93 93 93 94 97 97 102 94 90 94 92 89 86 84 78 78 74
83 79 73 69 68 69 70 71 70 70 71 74 78 81 82 82 86 85 86 91 92 92 91 92 93 90 92 97 102 95 90 87 77 78 79 76 72 71
65 63 64 65 65 65 65 66 68 70 74 76 79 80 82 83 83 86 89 89 90 91 93 92 90 91 93 90 92 96 89 78 70 70 75 77 72 63
60 60 60 60 62 64 66 67 69 73 75 75 77 79 80 83 86 86 86 86 88 91 91 91 93 92 90 91 90 89 85 79 69 59 68 69 72 69
57 58 60 61 62 64 67 69 69 71 73 74 75 79 81 84 84 82 83 86 89 89 91 93 94 92 91 90 87 79 75 75 73 67 57 57 57 64
59 60 58 57 59 60 62 63 64 67 70 73 77 78 80 79 79 82 85 86 86 89 91 93 92 93 92 86 78 71 70 70 68 69 65 56 50 48
Wind_Direction
264 266 267 269 269 272 273 275 277 281 284 286 287 287 289 288 287 286 286 288 289 290 291 293 294 294 293 292 293 293 292 292 291 290 289 289 288 287
265 267 269 271 273 277 277 279 282 286 290 291 291 293 294 294 296 295 294 294 294 294 295 295 295 293 292 290 291 291 291 291 292 292 291 290 288 288
267 271 274 276 277 278 279 282 285 287 288 288 289 290 293 294 296 297 298 298 298 298 298 298 298 298 298 297 296 296 295 294 293 293 293 292 291 290
269 271 273 275 277 279 282 284 286 288 289 290 290 292 295 296 296 298 299 300 300 299 299 299 300 299 299 299 298 299 298 297 297 297 295 296 294 293
267 269 273 276 276 279 281 285 286 288 290 290 293 296 298 301 302 302 301 301 300 300 299 299 298 300 300 301 302 301 299 297 296 299 300 299 298 296
267 270 273 276 277 279 282 284 287 289 290 292 295 298 300 301 303 304 305 302 300 299 298 297 299 300 302 302 300 300 302 302 300 300 299 297 297 296
267 270 272 275 278 279 282 285 287 288 289 292 295 298 301 304 304 307 305 302 299 299 299 299 300 299 301 300 300 300 300 299 300 300 300 299 296 295
266 270 272 274 276 279 281 284 286 288 290 292 295 298 302 302 305 305 304 303 300 300 300 300 300 300 300 302 302 302 303 303 303 303 301 300 299 297
268 271 274 276 278 280 282 285 286 289 289 292 296 298 300 303 304 303 304 303 300 300 301 302 302 302 303 304 303 303 305 305 303 302 302 302 302 303
266 269 272 275 278 280 281 283 287 288 290 292 294 297 300 301 303 303 303 299 298 299 300 302 304 305 304 305 305 306 306 305 305 305 306 305 305 303
268 271 274 275 278 280 283 284 286 287 290 291 294 296 299 300 302 300 299 298 297 299 302 302 302 303 305 306 306 308 308 307 306 306 305 305 304 303
270 272 274 277 279 280 282 284 286 288 291 293 295 296 297 299 297 296 296 296 299 301 302 303 305 305 304 306 309 307 307 306 305 304 304 303 301 302
270 273 274 277 278 280 283 285 286 288 289 292 296 297 296 294 294 295 296 298 300 302 302 303 302 302 305 307 307 307 305 304 305 305 302 302 301 303
271 274 276 279 281 282 284 285 287 287 289 294 294 292 292 292 293 295 297 298 300 302 302 302 302 305 307 308 306 306 306 306 307 306 302 303 305 305
272 276 276 276 280 281 284 284 284 286 290 289 289 289 290 292 295 296 297 299 303 304 304 304 306 308 307 307 308 307 308 309 308 306 304 306 308 310
273 275 275 277 280 280 281 281 282 285 285 286 288 290 293 293 294 296 299 302 303 304 304 309 310 309 309 310 311 312 309 308 309 307 309 310 312 312
271 272 274 275 276 276 277 277 279 282 282 285 288 291 291 292 295 298 301 300 302 305 310 310 310 310 311 311 314 315 312 313 313 314 314 314 314 316
269 271 271 270 271 272 273 276 279 281 282 286 288 289 291 294 297 298 298 301 305 310 309 309 310 313 315 317 317 317 315 316 317 317 315 315 315 317
265 266 268 269 270 272 274 276 277 280 283 285 287 289 291 295 297 298 301 305 308 307 307 309 311 314 316 318 318 315 317 318 318 315 313 314 314 315
263 263 264 267 270 272 273 275 278 281 283 285 287 291 294 295 297 300 303 305 306 307 308 311 313 315 317 317 318 316 315 316 318 317 315 315 314 315
261 263 265 266 267 270 272 274 277 279 282 285 289 290 293 296 299 302 304 305 306 307 310 312 315 317 318 318 318 318 317 317 317 319 316 316 316 317
260 261 263 266 270 273 275 277 278 280 283 285 288 291 294 296 298 302 304 305 306 308 311 314 317 318 318 318 317 318 317 317 319 318 319 317 318 317
258 262 267 270 274 276 276 276 278 280 283 286 290 292 292 297 299 302 303 305 308 310 313 316 318 319 318 318 318 318 319 319 319 318 321 323 321 319